Main page
METAR-TAF:

METAR-TAF

Airports :

Masjed Soleyman, Iran

latitude: 31-59N, longitude: 049-16E, elevation: 372 m

Current weather observation

The report was made 50 minutes ago, at 04:00 UTC
Wind 2 kt from the Southeast
Temperature 35°C
Humidity 23%
Pressure 1004 hPa
Visibility 10 km or more
no clouds below 1500 m and no cumulonimbus

METAR: OIAI 240400Z 14002KT CAVOK 35/11 Q1004

Time: 09:20 (04:50 UTC)


TAF: missing

Weather observations and forecasts of more than 4000 airports (METAR and TAF reports).

The available stations are represented by yellow and red dots on the map.

Hover mouse over dot to see the name of the station.

Then click to see weather observations and forecasts.

To change the map : click on the green buttons with a black cross to zoom in, on the green button with a dash to zoom out, or on the green arrows for adjacent maps.


METAR-TAF: